RH
12 12 12 12 12 12 12 12 13 13 13 13 12 11 9 7 7 8 10 10 10 9 8 7 7 6 6 6 6 6 6 6 5 5 5 5 5 6 5 5 5 5 5 5 6 7 7 8 8 9 8 8 9 10 12 10 11 15 18 20 16 12 11 10 14 17 15 14 13 13 14 14 14 13 14 15 16 16 15 15 17 21 22 23 28 35 35 30
8 8 8 8 8 8 9 9 10 10 10 9 8 8 6 5 5 7 9 10 10 9 8 7 7 7 6 6 7 6 6 6 6 5 5 5 5 5 6 5 5 5 5 6 6 7 8 8 9 9 9 9 9 10 12 13 14 16 17 18 13 9 9 10 16 17 16 15 12 13 13 13 14 13 13 14 16 16 16 18 19 23 24 23 24 28 29 25
5 5 5 5 5 5 5 6 6 6 6 5 5 4 4 5 5 7 9 10 10 9 8 7 7 7 6 7 6 6 6 6 5 6 6 6 5 5 6 5 5 6 5 6 6 6 8 9 9 9 9 9 9 10 12 15 17 17 19 16 10 9 9 11 15 16 16 15 12 13 12 12 14 13 13 14 14 15 14 15 16 19 22 25 31 33 31 29
4 3 3 4 4 4 4 4 4 4 4 3 4 3 4 5 6 8 10 11 10 9 8 7 7 7 7 7 6 6 6 6 12 15 12 8 5 5 6 6 6 6 6 5 6 7 7 9 9 9 9 8 11 12 12 15 17 19 20 15 11 13 13 11 13 15 14 14 12 13 12 12 14 12 12 13 13 13 12 12 12 16 21 25 35 41 38 34
3 3 3 3 3 3 3 4 3 3 4 3 4 5 6 6 8 10 11 12 11 9 8 8 8 7 7 7 6 7 5 10 25 29 21 15 10 6 5 6 6 5 6 6 6 7 8 9 10 10 9 8 13 14 13 15 16 17 18 15 15 17 16 13 14 15 14 13 12 12 12 12 13 12 12 12 12 12 12 12 11 15 23 28 33 40 43 40
4 3 3 3 4 4 4 4 5 5 5 5 6 7 7 9 11 13 13 12 10 10 9 8 8 7 7 7 6 6 6 17 34 35 26 21 16 12 7 5 7 6 6 6 7 7 8 10 10 10 9 10 15 15 13 16 17 16 16 16 16 16 16 14 14 14 14 13 12 12 11 11 13 12 12 12 12 12 11 12 13 20 28 30 30 33 41 44
5 4 3 3 4 4 5 6 6 7 7 8 8 9 10 13 15 15 14 12 11 10 9 8 8 7 7 6 6 6 5 13 27 28 21 17 14 14 11 7 6 6 6 6 7 7 8 11 12 12 11 13 15 14 14 17 18 17 15 15 15 16 15 14 13 14 14 13 11 12 11 11 12 11 12 12 13 13 14 15 16 24 28 28 29 29 37 44
5 5 4 4 4 5 7 8 8 9 10 11 12 13 15 17 17 16 15 12 11 10 9 9 8 8 7 6 6 5 6 9 13 14 14 12 9 11 13 10 6 6 7 6 7 8 9 12 14 14 14 14 14 14 15 17 17 17 15 14 14 14 14 13 13 13 14 13 12 12 12 12 11 11 11 10 13 16 20 21 19 22 22 28 36 36 42 49
4 4 4 4 4 4 6 9 11 13 15 17 17 19 19 19 18 17 15 13 12 10 10 9 8 8 7 7 6 5 13 19 18 18 17 11 7 8 11 11 8 6 7 6 8 10 12 15 16 15 15 15 15 14 15 16 16 15 14 14 14 13 13 13 13 13 12 13 12 11 11 11 11 11 10 14 16 14 24 29 24 23 23 32 41 43 50 56
4 4 4 4 4 4 5 8 12 16 19 20 20 21 20 20 20 18 15 13 12 10 10 9 9 9 7 7 5 8 20 21 19 20 15 8 7 7 9 11 8 6 7 7 8 12 15 17 16 17 17 17 16 15 15 15 14 13 13 14 14 13 13 13 12 12 12 12 12 10 11 10 11 12 12 24 24 13 25 35 29 28 28 34 42 48 54 56
4 4 4 4 4 4 4 5 9 15 19 21 21 21 21 21 20 19 16 14 12 11 11 9 9 8 7 8 5 12 23 16 10 12 7 6 7 6 8 10 8 7 7 6 11 16 18 18 19 22 21 19 18 16 15 16 14 13 14 14 14 13 13 13 12 12 12 12 11 10 10 10 11 12 12 24 27 16 21 29 29 31 33 37 43 50 55 55
4 4 4 4 5 5 4 4 5 10 16 21 22 22 22 21 21 19 17 15 13 12 11 9 9 9 7 7 6 11 16 9 7 8 6 7 6 5 7 8 8 7 9 14 20 22 21 22 24 25 24 22 20 18 16 16 16 14 13 13 13 12 12 12 12 12 12 12 11 10 11 12 11 13 13 16 22 21 21 25 30 33 34 38 42 48 52 55
4 5 5 4 5 5 4 4 4 5 9 15 20 23 23 22 21 20 19 17 14 13 11 10 10 8 7 7 10 13 10 6 8 8 7 7 5 5 7 8 8 9 16 24 25 23 23 24 25 25 24 23 21 19 17 16 17 15 14 13 12 12 12 12 11 11 11 11 11 10 11 12 10 12 13 13 17 20 22 27 29 27 30 35 40 44 45 50
5 5 5 5 5 5 5 5 5 5 5 7 12 18 22 24 22 21 20 18 16 14 12 11 9 9 8 8 12 15 10 7 8 8 7 7 6 6 6 8 8 11 19 24 23 22 23 24 25 25 23 22 21 20 17 17 18 17 16 14 12 12 10 10 11 10 10 10 10 11 11 10 11 12 13 13 15 15 21 30 27 23 29 37 40 40 38 44
6 6 5 5 5 5 5 5 5 5 5 5 5 9 16 21 23 23 21 20 17 15 13 11 10 9 7 10 19 20 12 9 8 8 8 7 7 6 6 7 8 10 16 20 20 19 21 24 25 23 21 20 20 20 18 18 18 17 17 16 14 13 11 11 12 10 10 11 11 13 11 10 11 12 13 14 16 21 28 32 28 27 33 38 38 37 37 41
7 7 6 6 5 5 5 5 5 5 5 5 5 6 8 13 19 21 22 22 19 17 14 12 10 9 10 16 25 25 17 11 9 8 8 8 9 8 7 8 10 12 16 18 18 19 23 25 24 21 19 18 19 21 20 18 17 17 16 16 16 15 14 13 13 12 11 12 12 12 12 12 12 13 15 14 21 35 38 33 29 29 32 34 35 36 35 38
9 8 8 8 7 6 6 6 6 5 5 6 6 10 16 19 21 20 21 21 21 19 14 14 11 8 17 26 29 30 26 17 10 10 10 9 10 8 7 11 12 12 17 21 21 21 22 22 22 18 17 19 20 21 21 19 17 16 17 19 20 19 17 16 16 15 14 12 12 12 13 12 13 15 17 23 33 40 35 26 23 24 30 33 33 34 34 38
9 10 9 9 8 7 6 6 6 6 7 7 11 22 31 34 31 29 27 21 20 20 14 14 10 10 25 35 33 34 31 20 12 11 11 11 11 8 10 17 18 14 18 24 22 20 19 20 20 17 18 20 21 22 22 20 19 19 21 25 26 23 21 19 18 16 14 12 11 13 11 12 20 22 24 35 40 34 24 20 20 24 32 34 32 33 35 40
10 10 9 9 9 8 7 6 7 7 7 11 21 32 37 41 43 43 39 26 19 20 17 12 9 19 35 38 35 35 32 23 16 14 12 14 14 10 13 19 22 22 23 25 23 22 22 22 22 19 19 20 21 23 22 22 23 24 26 27 27 25 22 19 17 14 12 12 12 12 11 16 26 28 31 35 32 26 20 18 21 26 33 34 33 34 34 37
10 9 9 9 9 9 9 6 7 8 9 14 28 42 48 54 54 47 41 34 26 20 17 13 11 26 40 40 38 38 37 31 25 22 17 18 18 15 16 20 24 25 25 26 25 25 25 24 22 19 19 21 21 23 26 29 29 28 29 27 26 25 21 19 15 12 11 12 12 11 12 16 21 29 38 38 35 31 22 19 25 31 36 33 31 31 30 34
10 9 9 9 9 10 9 7 7 9 11 13 26 48 56 53 46 35 28 32 36 26 15 13 16 27 37 39 39 38 38 37 34 29 22 21 22 20 20 21 23 25 24 27 26 25 26 25 21 19 21 24 24 27 31 32 31 30 28 26 25 23 20 19 16 12 11 12 13 13 14 16 17 23 30 32 35 32 20 20 28 32 35 33 28 29 30 32
10 10 10 9 10 9 9 10 8 9 13 13 19 37 47 42 35 28 20 21 32 33 19 12 16 26 34 38 38 36 37 38 38 32 24 24 23 21 22 21 22 23 24 27 26 26 27 23 19 20 23 24 26 31 32 31 31 28 25 23 24 21 19 20 19 15 12 13 16 16 16 18 17 18 20 20 24 24 18 21 24 24 29 30 28 28 27 28
10 10 10 10 10 8 10 10 8 13 17 19 26 34 40 40 33 33 32 20 17 23 20 11 14 23 32 37 37 35 34 37 39 33 25 23 21 21 22 22 22 23 25 26 26 27 25 21 20 23 24 23 24 27 29 30 29 24 21 21 21 20 18 19 21 19 16 17 19 18 16 17 17 18 19 19 19 19 21 25 24 21 22 25 26 27 26 27
10 11 9 10 10 9 11 8 17 34 33 39 49 42 37 38 33 31 32 22 10 13 15 10 11 19 29 36 39 38 36 36 37 32 27 23 20 19 20 21 23 23 24 26 26 26 23 20 22 25 25 24 23 25 28 28 26 23 20 17 18 19 18 18 22 24 21 20 21 19 17 16 16 18 19 20 21 21 21 24 25 22 22 25 27 28 29 29
11 11 9 11 9 10 11 7 25 48 47 53 56 39 31 34 34 32 28 22 14 11 14 11 7 12 26 38 39 38 38 37 35 30 29 26 21 19 19 20 22 21 21 23 25 25 23 20 21 23 24 23 24 27 27 26 24 22 19 16 18 22 21 20 22 24 22 22 23 21 22 21 17 17 20 20 21 21 20 21 22 23 24 27 27 26 29 32
12 11 9 11 9 10 11 8 22 42 51 59 51 34 29 25 28 33 33 33 25 18 19 18 16 15 24 35 36 36 38 36 34 33 32 29 27 26 23 22 20 19 20 22 24 23 22 20 19 22 25 26 27 28 26 23 21 20 18 18 22 26 27 24 24 24 22 23 25 24 27 28 21 19 21 22 21 23 22 21 22 23 25 28 28 25 24 29
12 12 10 10 9 9 10 10 18 31 47 56 43 31 29 26 31 37 45 52 42 33 30 29 31 29 25 27 31 35 35 31 30 33 33 29 29 30 27 25 22 20 22 23 23 22 21 22 21 24 27 26 27 26 24 23 21 19 17 18 22 25 26 24 24 26 24 23 25 26 26 26 24 22 22 22 22 24 24 22 23 27 30 31 30 26 23 29
10 12 11 10 10 9 9 11 13 19 30 37 34 31 31 31 35 39 50 56 43 37 39 37 37 34 28 27 30 30 28 27 27 28 29 28 29 30 28 28 25 23 23 24 23 22 21 22 22 25 26 24 24 23 23 23 21 19 18 21 24 27 27 24 23 24 26 25 25 27 28 28 28 24 23 23 22 24 24 23 26 30 31 31 29 26 28 34
8 10 11 11 11 10 10 10 10 12 15 20 26 29 28 25 25 34 50 50 38 34 35 36 36 31 27 27 29 28 25 27 27 26 28 28 29 30 28 28 26 24 24 23 24 24 23 22 21 23 24 23 22 20 22 24 23 20 20 23 25 26 25 23 23 23 26 27 27 28 29 31 33 26 23 24 22 24 24 24 25 27 27 27 27 28 33 38
8 8 9 11 11 11 11 9 10 11 10 13 16 18 22 18 18 42 58 42 32 35 32 32 33 30 26 24 26 28 25 26 27 27 28 27 28 29 29 28 25 24 24 23 24 24 22 21 22 23 22 22 20 19 20 22 23 21 21 23 23 25 24 23 24 22 28 35 31 29 30 32 37 31 24 25 24 24 25 25 25 25 27 27 29 36 43 46
6 6 7 9 9 11 11 10 11 9 11 14 12 13 16 13 22 57 70 42 29 39 37 32 31 28 27 24 24 26 26 27 29 30 28 27 29 29 28 26 24 24 24 23 23 23 22 20 21 21 20 20 20 19 18 19 21 19 21 24 24 25 23 23 25 24 35 44 34 30 31 32 36 32 26 26 26 25 25 25 25 26 27 27 33 43 47 45
5 5 6 7 8 9 10 12 11 9 12 12 14 14 9 19 38 51 51 38 33 40 38 33 33 30 28 26 25 27 28 28 29 30 29 27 28 28 27 26 25 25 24 23 22 21 21 21 20 19 18 19 21 20 17 19 20 18 20 23 23 26 27 34 43 39 40 41 34 33 33 31 34 31 28 28 27 29 30 26 27 29 29 28 34 40 40 39
5 4 5 6 6 7 10 13 11 10 12 10 14 11 9 36 51 31 19 22 28 36 37 36 36 33 33 32 28 28 29 28 27 28 28 27 27 27 27 25 26 26 24 24 23 21 21 21 20 20 20 19 21 20 17 18 19 18 19 20 21 31 42 54 61 52 44 39 32 32 32 33 34 31 30 29 27 32 34 31 30 31 31 31 35 38 38 41
5 5 4 4 5 6 8 12 12 11 12 11 12 11 18 42 43 23 19 17 17 28 35 37 37 34 34 34 32 30 29 28 28 28 28 27 28 27 26 25 24 24 23 23 24 23 23 24 22 22 22 20 20 19 16 17 17 16 17 17 17 25 36 48 54 49 46 40 31 29 32 34 35 33 34 31 31 36 37 36 35 35 35 35 36 39 40 43
5 5 4 4 4 6 7 11 13 11 11 12 13 14 20 26 20 17 19 12 13 27 33 35 36 34 34 33 33 32 29 28 27 27 27 27 27 26 25 25 23 22 23 22 23 23 23 25 23 22 22 21 20 18 15 15 16 15 16 17 18 19 21 30 38 38 38 38 33 30 33 35 33 34 37 36 39 43 41 41 40 39 41 38 38 42 43 45
6 4 5 4 4 5 7 9 12 12 12 14 18 17 14 11 10 13 15 17 27 35 35 35 32 32 35 34 34 33 29 28 28 27 27 26 26 26 25 24 23 22 22 22 23 23 23 23 22 21 21 20 19 17 15 15 15 16 17 17 19 21 21 25 33 34 33 38 37 29 29 35 34 34 36 38 42 44 44 43 40 42 46 44 44 45 44 45
12 6 4 4 5 5 6 8 10 12 14 16 19 19 13 10 9 10 10 16 26 33 39 37 32 32 34 33 35 36 32 30 30 30 29 28 28 27 25 23 23 22 22 22 22 22 21 21 20 20 20 20 19 17 16 16 16 16 17 16 18 22 23 25 32 37 41 47 43 29 28 36 38 37 37 38 40 40 40 40 38 40 45 47 46 43 42 42
19 10 4 5 5 5 5 7 10 12 15 19 19 17 15 12 9 7 7 9 15 27 37 35 31 33 32 33 35 36 39 37 33 33 32 31 33 30 24 22 23 22 22 23 22 21 20 19 19 20 20 21 20 18 17 17 16 15 15 15 16 19 23 23 27 34 45 55 46 32 34 40 39 37 37 37 38 37 36 35 34 35 37 38 36 34 36 35
23 14 8 7 6 5 5 5 10 13 18 22 20 17 16 12 8 8 7 9 18 29 34 31 28 27 28 33 33 35 43 41 34 34 32 30 34 34 28 25 24 23 24 24 22 22 21 19 20 21 21 21 19 19 20 20 19 17 16 17 15 17 20 20 25 29 35 49 50 40 43 46 41 38 36 35 34 35 35 33 32 32 31 30 29 30 32 30
25 16 15 17 10 5 6 7 11 16 18 19 17 15 15 10 8 9 7 13 27 34 34 31 27 24 24 27 28 32 43 43 36 35 33 32 36 37 33 31 28 24 25 25 22 22 21 20 20 20 21 22 21 22 23 24 23 19 18 19 19 21 22 21 26 27 27 43 58 58 53 48 44 41 39 37 35 35 35 35 36 35 31 29 29 32 35 33
23 16 27 38 23 10 12 14 17 24 26 23 19 17 18 18 15 12 11 21 33 35 31 30 28 26 24 23 23 27 35 40 39 37 37 38 39 37 35 35 33 28 26 25 24 24 23 22 21 19 19 21 23 24 24 24 23 19 19 21 22 23 24 26 34 33 26 33 48 57 57 51 46 43 41 39 38 38 37 37 39 40 38 36 35 38 40 37
20 23 42 55 45 34 34 34 39 54 56 45 36 30 29 29 23 17 19 26 33 32 30 30 29 25 22 21 21 22 26 33 37 35 35 38 40 40 38 36 34 32 30 28 28 29 27 25 23 21 21 22 23 25 24 23 21 18 20 23 22 22 21 27 37 34 27 29 31 37 45 47 47 45 43 42 39 38 39 38 40 42 42 41 40 41 40 38
22 42 60 62 60 57 51 51 64 77 71 52 41 37 34 31 26 26 32 34 35 33 30 31 29 26 23 22 21 22 23 28 34 36 37 40 42 43 41 35 33 34 33 30 30 29 27 28 25 22 22 21 20 20 19 20 20 19 23 25 25 26 22 24 30 26 26 31 28 30 40 47 48 46 44 42 39 38 39 39 40 41 41 41 42 44 43 42
21 54 81 75 70 70 64 67 78 77 63 50 43 44 46 45 39 38 41 41 39 35 31 32 31 28 28 27 24 25 26 27 32 37 40 42 42 41 40 37 36 38 36 32 31 28 27 27 25 25 30 27 23 22 18 18 20 22 26 27 26 29 26 25 27 25 27 30 28 35 48 51 48 45 42 40 40 40 40 40 42 45 48 49 49 50 51 50
18 47 84 87 81 84 80 80 82 75 66 61 57 56 55 52 47 45 45 44 41 36 33 33 33 31 32 32 29 28 28 28 31 35 37 39 40 40 38 38 40 42 40 36 33 30 29 29 28 32 40 41 40 39 31 26 27 26 27 26 25 27 27 27 28 26 29 32 32 39 50 50 47 47 44 42 42 42 42 46 54 60 62 61 58 56 55 54
34 44 73 85 85 89 89 87 85 78 72 67 63 60 54 48 45 44 44 43 41 40 37 35 33 32 33 33 32 31 31 31 32 33 34 38 43 42 39 38 39 40 39 37 34 31 28 27 27 28 32 35 38 39 36 33 31 27 25 24 26 27 27 27 28 28 31 32 32 36 44 48 48 44 42 43 44 43 44 50 57 62 64 65 63 61 60 59
60 62 72 76 78 84 85 84 82 74 68 63 58 56 53 48 45 43 43 45 44 43 41 38 34 33 34 33 32 33 35 34 34 34 35 38 40 40 40 38 37 36 35 33 32 30 27 26 26 25 28 34 35 33 34 34 31 28 26 26 28 29 28 26 27 29 30 29 32 38 42 44 44 42 42 43 42 40 42 46 48 49 52 56 57 57 58 60
58 75 80 76 76 83 81 78 76 69 65 61 56 56 54 51 50 48 49 50 47 46 45 44 39 35 35 35 33 35 37 34 34 37 37 38 38 37 38 37 34 34 33 30 30 28 27 27 27 26 30 35 35 33 33 31 29 30 32 32 31 30 29 28 28 29 29 29 33 40 42 42 43 44 46 48 47 44 41 42 45 44 44 46 50 54 55 56
32 58 79 80 78 80 76 73 75 72 68 61 55 55 54 52 53 54 54 53 50 50 50 51 49 43 40 38 34 36 38 37 42 43 38 37 39 38 38 39 38 36 34 32 31 29 27 29 29 28 29 30 30 32 31 25 23 30 35 35 34 31 30 31 32 32 31 31 34 37 39 43 46 46 46 48 51 51 46 44 46 49 50 49 48 50 50 51
20 46 75 79 74 74 72 73 75 73 68 63 59 59 58 57 55 53 55 57 55 55 56 57 59 56 51 45 38 36 39 43 51 52 44 41 43 42 42 43 42 40 38 36 35 32 31 34 36 33 32 34 34 34 33 29 29 36 40 38 35 34 33 33 35 36 36 37 39 39 38 43 49 50 49 49 51 50 48 47 49 57 61 59 54 51 48 50
29 54 75 75 72 75 78 80 79 75 70 67 65 63 61 62 63 59 58 58 56 56 57 59 61 60 58 54 46 44 45 46 51 56 53 49 48 46 46 47 47 44 41 39 38 38 36 37 42 41 39 42 42 39 38 37 37 40 41 39 38 38 37 37 38 40 41 42 44 41 39 46 54 56 55 55 55 54 53 51 52 58 62 61 60 59 55 58
46 68 75 71 70 73 75 76 76 75 76 75 72 68 64 64 66 62 60 62 61 56 54 54 56 55 56 57 56 55 53 49 49 52 53 53 52 50 48 47 48 46 43 41 42 45 43 39 41 43 42 43 43 42 40 39 43 48 46 43 45 46 44 43 44 45 47 48 47 44 45 51 59 61 58 56 55 57 59 59 60 62 62 61 63 63 61 64
Wind_Speed
15 15 15 15 15 14 14 15 15 15 15 15 14 14 14 14 14 14 14 13 12 12 12 12 13 13 12 12 12 12 12 12 11 12 12 11 12 12 12 14 14 14 15 17 16 16 15 15 14 15 16 16 16 16 17 19 19 18 16 16 17 17 15 13 14 10 3 6 10 7 3 3 3 5 2 1 3 2 2 6 8 8 8 9 8 7 7 8
14 14 14 14 14 14 14 14 15 15 15 15 14 14 14 14 14 14 13 13 12 12 12 12 12 12 12 11 11 11 11 10 11 11 11 10 12 11 11 13 14 14 15 16 16 16 16 15 16 16 16 15 14 16 18 19 18 17 16 17 19 17 14 12 13 11 7 10 14 9 5 5 5 5 3 4 3 3 3 6 7 7 7 9 10 10 10 10
12 13 13 13 13 13 13 14 14 14 14 14 14 14 14 14 13 13 13 12 12 11 12 12 12 12 11 11 10 11 9 9 10 10 10 10 11 10 11 12 12 12 14 15 16 17 18 19 20 19 18 16 14 16 17 17 18 16 16 18 17 14 13 13 12 11 7 9 12 8 8 7 7 6 5 5 4 5 6 6 9 11 10 10 10 11 11 10
11 12 12 12 12 13 13 13 13 13 13 13 13 13 13 13 13 13 12 12 11 11 12 12 12 11 10 10 10 9 8 8 8 7 8 8 9 9 10 10 11 11 13 16 17 18 20 21 20 21 20 18 16 17 18 17 17 16 18 18 12 9 12 10 8 8 6 9 12 11 11 9 7 6 6 5 8 11 9 8 10 12 12 10 7 8 10 10
10 10 11 11 11 12 12 12 12 13 13 13 13 13 13 13 13 12 12 11 11 11 12 11 11 10 10 9 9 8 7 6 5 5 5 6 7 8 9 10 11 12 14 16 17 19 21 20 20 21 20 20 19 18 19 16 15 15 16 16 10 8 12 8 4 6 7 10 14 15 17 13 9 8 9 10 13 16 14 12 12 12 11 7 4 5 10 10
10 10 10 10 10 11 11 11 12 12 12 12 12 12 12 12 12 11 11 10 10 11 11 11 10 10 9 9 8 7 5 5 5 5 5 6 6 7 8 9 10 13 14 14 17 19 20 21 22 21 18 19 20 19 18 15 12 13 13 12 10 9 13 9 5 7 9 11 12 15 19 16 11 10 11 13 15 16 14 12 12 11 7 6 5 6 8 9
10 10 10 10 10 9 10 10 10 10 10 10 11 11 11 11 11 10 10 9 10 10 10 10 10 9 9 8 7 6 7 7 7 8 7 7 7 7 8 9 11 12 12 13 16 17 20 21 21 20 18 18 18 17 16 15 11 12 12 10 10 12 14 11 9 12 14 12 10 14 19 17 13 11 13 14 14 14 11 9 11 9 6 7 7 7 8 9
10 10 10 10 10 9 9 9 10 10 10 9 10 10 10 10 10 10 9 9 10 10 9 9 9 9 8 7 7 7 7 7 7 7 7 8 9 8 9 9 10 11 11 13 14 17 19 19 19 17 13 11 12 13 13 12 12 13 12 9 10 13 15 14 14 17 18 16 13 15 16 16 15 14 17 18 14 11 7 8 10 10 9 8 5 6 9 10
10 10 10 10 10 9 9 9 9 9 9 9 9 9 10 9 9 9 9 9 9 9 9 9 8 8 7 7 7 6 5 4 6 7 8 8 9 8 8 8 9 11 12 13 15 17 15 14 13 9 5 4 6 10 10 10 12 13 12 12 14 16 17 16 16 17 18 18 16 16 16 14 11 9 15 17 14 10 7 8 9 10 11 7 4 7 10 10
10 10 10 10 9 9 9 9 9 9 9 9 9 9 9 9 9 9 9 9 9 9 8 8 8 7 7 6 6 6 4 3 4 7 7 6 6 7 7 6 9 11 12 15 16 14 12 12 11 6 4 5 7 9 8 10 12 12 13 14 15 15 17 17 18 19 19 19 16 17 18 15 8 7 14 13 10 10 9 8 8 9 10 8 7 8 11 12
10 10 10 10 9 9 9 9 9 9 9 9 9 9 9 9 9 9 9 9 9 8 8 8 7 7 7 5 5 6 5 2 2 4 4 3 3 4 5 6 8 11 13 15 15 15 15 14 10 4 6 7 8 9 9 11 13 15 16 18 15 13 14 17 21 22 19 18 15 15 16 15 11 11 16 14 11 12 11 9 9 8 8 8 8 8 11 13
10 10 10 9 9 9 9 9 9 9 9 9 9 9 9 9 9 9 9 8 8 8 8 7 7 7 6 5 5 6 5 3 3 2 1 1 2 3 5 8 9 11 15 16 16 18 16 14 8 5 6 8 10 11 10 12 13 14 14 17 17 15 16 20 22 21 19 18 15 12 13 15 14 13 16 16 14 15 14 12 10 7 7 8 8 9 10 12
9 9 9 9 8 8 8 8 8 8 9 9 10 10 9 9 9 9 8 8 8 8 8 8 7 7 6 4 3 4 5 3 4 2 1 1 1 2 6 10 11 14 18 19 20 20 18 13 6 7 9 12 13 12 10 11 10 10 10 13 16 19 20 20 21 21 20 21 17 12 16 18 15 15 17 17 17 18 17 15 13 10 10 10 9 9 10 11
7 7 8 8 8 8 8 7 7 7 7 8 9 10 11 10 9 9 8 8 8 8 8 8 7 7 5 3 2 3 5 2 4 4 2 1 1 2 7 11 14 18 21 21 21 21 18 10 6 11 13 14 14 12 11 10 8 8 9 10 13 19 17 11 14 20 19 19 17 16 20 18 12 15 16 14 17 20 20 19 16 13 10 9 8 7 8 8
6 7 7 7 7 7 7 7 7 6 6 6 7 8 9 11 11 9 9 8 8 9 9 7 6 5 4 2 2 3 4 2 3 5 3 2 2 2 6 9 13 17 19 20 20 20 16 9 9 13 14 15 13 9 10 11 9 8 9 9 10 16 15 6 5 12 14 14 13 17 20 13 8 15 16 13 16 19 22 19 13 10 7 6 7 5 4 5
7 7 7 7 7 7 7 7 6 6 5 5 4 4 5 8 10 11 10 9 9 9 9 7 5 4 2 1 1 2 3 4 3 3 4 4 5 4 6 8 11 13 15 17 18 16 13 10 11 12 12 15 13 9 11 11 10 9 8 10 11 16 19 15 7 8 12 13 14 19 20 13 9 14 15 14 16 19 21 15 8 7 6 7 7 4 2 4
7 7 7 7 7 7 7 6 6 5 4 3 2 0 1 2 5 8 9 9 9 9 9 6 4 3 1 2 1 1 2 4 3 3 4 7 9 9 10 9 7 10 13 15 14 12 11 11 11 11 11 14 13 11 11 9 8 7 7 10 11 14 19 21 17 12 14 17 19 21 22 19 14 13 15 15 18 21 16 9 7 7 8 9 7 4 2 2
9 9 8 7 7 7 7 6 5 4 3 1 1 3 4 3 3 4 6 10 10 10 9 6 5 4 4 5 4 1 0 2 3 4 6 8 9 11 13 11 6 7 9 11 11 7 7 7 6 8 13 14 13 12 11 7 5 7 10 11 11 11 13 19 22 17 14 19 23 24 23 19 11 9 14 17 19 18 12 8 8 9 11 10 7 3 1 1
10 10 9 8 7 6 6 6 5 3 2 3 4 4 4 3 3 4 6 9 11 11 9 8 8 9 8 9 10 6 2 1 3 5 7 7 7 9 13 13 9 7 8 10 9 5 4 4 5 10 15 14 13 11 10 6 6 9 11 12 14 15 16 18 18 13 15 20 23 23 20 15 11 12 15 18 18 16 13 11 10 11 12 10 8 4 4 4
10 10 9 8 7 6 5 5 5 2 2 5 6 5 3 1 3 7 8 8 11 13 13 11 12 15 12 10 12 8 0 2 2 1 5 6 5 8 12 13 10 6 7 9 6 2 2 4 7 12 11 10 10 8 7 4 6 10 11 15 18 20 19 17 7 13 19 21 22 21 21 16 14 18 22 21 22 20 17 14 13 14 13 12 9 6 6 5
10 10 9 8 7 6 4 4 4 1 2 5 7 5 3 3 6 11 13 10 12 14 16 15 15 17 14 10 12 10 4 3 5 3 4 7 6 7 10 10 10 9 9 7 2 3 6 8 8 10 7 5 5 6 6 5 9 13 14 17 18 19 17 12 4 12 19 20 20 21 20 13 10 19 23 19 22 23 17 14 14 14 14 14 11 8 7 5
10 10 9 8 7 6 4 3 2 1 2 4 5 4 4 7 9 13 15 11 11 14 16 17 17 17 14 11 13 13 10 7 7 5 6 9 9 9 10 9 9 10 9 6 5 7 10 8 8 9 6 5 4 5 7 8 13 16 16 17 17 17 14 7 10 9 19 17 13 15 15 10 9 14 16 15 21 23 16 12 12 11 14 15 13 9 6 5
10 10 9 8 7 6 4 2 2 1 2 3 3 3 4 7 9 11 14 13 10 12 16 17 16 15 16 14 13 12 11 12 10 8 7 9 10 12 12 10 9 8 9 10 10 11 11 3 7 5 4 7 7 7 12 13 15 16 16 16 15 13 10 4 8 5 13 9 2 8 13 11 7 7 9 9 13 17 13 10 10 10 10 10 9 7 6 6
10 10 9 8 7 6 4 1 1 3 4 3 2 4 5 6 9 9 11 14 9 8 12 14 15 16 17 15 13 12 10 11 11 8 8 9 9 12 13 11 9 9 10 11 10 13 12 2 1 3 4 8 11 10 14 16 15 15 15 14 12 8 5 4 6 5 4 3 4 4 8 10 8 4 6 5 5 10 13 13 13 11 9 7 8 8 7 6
10 10 9 8 7 6 5 3 4 5 5 5 5 6 6 6 8 8 9 14 9 5 9 10 12 14 17 17 13 11 10 11 11 9 9 9 9 9 10 10 11 12 12 10 11 15 16 10 10 12 10 10 12 12 12 13 12 12 14 12 6 3 3 4 6 4 4 6 6 3 4 6 10 6 3 3 4 9 15 19 18 13 11 11 9 9 8 6
11 10 9 9 8 6 5 4 6 6 6 7 8 8 8 7 5 8 11 15 11 2 6 7 8 10 18 21 14 11 10 14 14 12 13 13 11 8 7 10 12 11 10 9 11 15 17 14 15 17 14 12 15 16 13 11 9 10 11 8 4 5 6 3 2 4 5 4 3 2 2 4 9 9 4 2 3 9 16 19 19 14 13 14 12 8 5 6
13 12 10 10 9 7 6 5 6 8 9 10 11 9 8 7 5 8 9 10 7 3 3 6 7 7 15 20 16 13 11 10 11 15 16 14 15 15 12 12 13 11 9 9 11 13 13 14 13 15 14 14 15 15 13 11 9 11 10 7 7 8 8 5 1 0 1 3 3 3 4 5 8 8 5 3 4 11 17 19 19 16 15 15 12 7 6 8
15 14 13 11 10 8 8 7 8 11 13 13 14 11 8 7 5 4 4 2 2 2 1 4 7 6 8 14 17 16 9 4 5 10 14 13 14 19 19 15 15 16 13 12 15 13 11 12 9 16 17 14 13 11 10 11 12 12 9 7 8 7 8 8 6 3 2 4 5 6 7 5 6 6 5 4 5 7 12 19 21 18 15 14 10 7 7 8
16 16 15 13 12 10 9 10 11 12 14 14 13 12 9 8 5 2 1 1 1 1 1 3 6 7 6 11 18 16 10 8 6 4 10 16 16 19 21 17 15 18 18 17 20 16 11 9 7 16 17 13 10 7 6 9 13 13 10 10 12 9 7 7 7 6 1 2 4 6 6 3 4 7 7 7 8 8 8 19 19 15 12 10 9 10 10 12
16 17 16 16 14 12 11 12 11 11 13 12 12 12 11 8 4 3 1 2 2 1 2 5 7 7 6 10 17 19 16 15 11 7 9 15 16 17 20 18 14 15 18 19 21 20 13 8 8 14 13 9 8 8 7 8 9 10 10 12 12 9 7 6 6 5 0 0 4 5 2 1 1 4 7 8 9 7 12 21 19 16 13 10 11 12 12 14
15 17 17 17 17 15 12 12 12 12 12 11 10 12 11 8 5 5 2 3 4 3 3 4 5 7 8 9 13 17 18 16 14 12 11 14 17 18 18 18 15 13 17 19 19 18 13 7 9 13 11 9 11 10 10 8 7 6 7 7 5 3 3 3 4 3 1 2 4 3 2 2 2 3 6 8 9 8 15 20 18 17 15 14 14 16 16 15
16 17 17 17 18 17 14 14 14 12 11 10 9 10 11 7 7 9 5 2 2 1 2 1 2 6 9 10 12 13 13 13 14 14 14 17 19 21 19 16 15 13 14 16 16 14 12 9 9 12 12 10 10 10 9 10 11 7 5 7 4 2 2 2 3 2 1 2 2 1 4 2 3 4 7 9 6 10 17 18 19 20 17 16 17 17 16 15
18 18 17 17 18 17 15 16 16 14 11 11 10 10 11 6 5 13 12 7 3 2 2 2 3 4 6 8 11 14 14 14 14 13 14 19 21 19 18 14 14 14 11 10 11 10 10 11 9 10 12 10 10 10 8 11 13 9 7 7 4 3 3 1 2 1 1 1 1 3 5 2 2 3 6 9 6 14 19 17 18 19 17 16 16 15 14 14
19 20 18 17 17 15 15 17 18 16 14 14 13 11 12 8 6 10 12 11 10 5 3 6 7 6 8 9 10 13 18 17 15 15 13 20 24 20 17 14 11 13 12 10 10 7 5 7 7 7 8 9 11 9 7 9 12 9 8 7 6 5 4 3 4 3 3 3 1 1 3 2 3 3 2 4 8 17 21 18 17 17 16 15 14 13 14 14
19 20 19 17 15 14 16 18 19 18 16 15 14 14 15 14 12 11 12 11 9 7 8 11 11 10 12 15 11 10 19 19 15 18 16 18 23 19 16 16 13 12 14 13 12 10 9 9 7 7 5 5 7 7 5 8 9 6 6 7 9 10 9 6 6 7 6 2 2 2 1 4 6 8 8 8 12 18 18 17 16 15 14 14 13 14 14 12
19 20 19 17 15 14 16 20 21 20 19 17 17 18 20 18 13 12 11 8 4 6 11 13 10 10 12 14 11 7 12 17 14 17 18 16 20 20 18 16 14 14 16 15 11 7 8 9 7 7 6 5 5 5 7 8 5 4 5 3 3 8 10 8 6 5 5 3 1 4 5 7 9 9 9 7 7 10 10 11 13 12 11 11 11 12 10 8
17 19 19 16 12 14 17 20 22 22 20 19 20 21 21 19 16 15 13 11 7 7 11 14 10 8 9 9 12 9 6 8 11 16 17 13 13 16 18 18 16 17 17 16 12 8 8 9 6 5 6 7 6 7 9 6 3 3 5 2 2 4 7 8 4 2 3 2 3 5 6 8 8 8 11 12 13 16 15 15 16 15 15 13 11 11 12 11
14 16 17 13 12 15 18 19 22 23 21 21 22 22 21 19 17 17 15 14 12 10 12 15 12 8 9 7 12 15 10 6 8 15 17 16 13 9 9 10 13 18 19 16 16 12 9 10 5 3 6 5 4 8 9 5 5 6 5 3 4 5 5 6 4 1 2 1 3 2 5 7 5 5 10 13 14 16 17 19 19 19 19 17 14 13 13 12
12 10 9 9 12 16 18 19 21 23 21 21 23 22 20 19 17 15 15 13 12 11 13 14 11 7 8 7 6 9 9 5 7 12 11 13 17 15 9 4 5 14 18 18 18 13 11 10 5 4 8 4 3 5 1 5 2 4 5 3 4 3 4 5 4 3 4 2 2 1 4 5 3 1 6 12 13 14 18 20 19 19 18 16 14 13 12 10
9 3 5 9 12 14 16 19 21 22 22 22 23 21 18 18 17 15 14 12 10 9 11 13 10 7 4 6 4 3 7 10 11 11 5 3 9 13 12 8 5 8 11 14 15 12 12 12 9 7 8 5 3 4 6 8 8 6 4 5 4 3 4 6 5 5 4 2 3 2 1 3 6 4 3 7 10 12 16 16 14 14 14 15 13 11 10 10
6 4 10 10 12 15 17 20 21 21 21 20 20 20 17 17 16 13 12 11 10 9 11 13 12 10 7 7 8 3 5 10 15 17 12 5 5 5 5 9 10 8 8 9 10 11 11 11 11 11 9 7 2 3 4 5 7 9 5 2 4 4 5 6 4 5 5 2 3 4 2 5 9 8 6 7 9 10 10 11 10 10 12 14 13 12 12 11
3 8 14 13 13 15 17 18 20 18 15 14 14 14 15 15 14 11 8 8 7 9 12 11 10 9 9 9 9 6 5 8 12 18 19 14 13 8 1 6 11 10 12 10 6 8 10 9 10 12 12 10 7 5 7 8 7 4 4 5 2 4 6 7 4 4 6 3 4 6 3 5 9 6 5 6 8 11 11 10 9 10 13 14 14 15 15 13
5 10 14 16 15 15 15 16 18 15 10 9 9 9 10 11 11 10 7 6 9 12 11 11 9 7 6 6 8 6 5 7 8 15 18 15 18 20 13 8 7 4 12 15 9 8 8 7 8 9 12 14 12 8 8 9 6 3 11 11 7 3 3 7 7 6 6 4 6 5 2 4 6 3 4 8 9 11 14 14 13 12 14 17 17 16 15 15
7 13 14 16 17 17 18 15 12 11 9 9 9 7 6 9 10 9 9 11 13 12 11 11 9 7 3 4 6 5 4 5 4 10 16 14 14 19 17 14 10 8 9 13 13 10 7 6 6 3 4 9 12 9 6 6 2 6 9 9 10 8 4 4 7 7 5 4 6 4 3 6 6 3 6 9 10 11 12 14 14 11 13 16 18 17 16 15
7 15 14 13 15 16 17 12 8 8 9 9 12 12 11 11 12 10 10 11 9 7 8 9 8 5 2 2 5 6 4 6 4 2 6 9 9 10 11 14 17 17 12 8 9 8 6 6 6 4 2 1 3 2 2 3 2 2 1 4 9 9 6 3 4 4 6 5 4 5 9 11 8 4 7 8 8 8 9 10 10 10 12 14 16 16 16 16
4 11 13 11 13 13 13 9 7 7 6 7 11 12 11 10 11 11 11 11 9 6 6 9 11 10 7 4 5 5 4 6 4 4 5 8 11 9 8 11 15 15 13 11 11 10 7 6 6 6 6 5 5 4 3 6 6 6 6 7 10 10 7 3 2 5 6 5 2 6 11 13 10 4 5 7 7 7 8 9 10 10 11 12 14 15 16 16
3 5 7 8 10 12 12 10 8 7 3 2 3 4 6 7 9 11 10 8 10 9 5 5 11 12 8 6 7 6 3 4 3 7 11 10 11 11 9 12 13 12 13 13 13 11 9 8 7 8 7 7 8 9 10 9 7 7 8 9 8 7 7 5 2 3 3 1 2 9 13 14 12 7 5 6 7 8 7 7 9 9 9 10 11 12 13 16
3 1 2 3 3 3 4 5 7 9 5 4 4 2 3 5 5 5 7 5 7 10 7 3 6 9 7 6 8 6 3 4 4 8 12 12 11 13 13 11 10 10 10 11 11 11 10 8 9 9 9 10 11 12 14 14 11 8 7 7 7 6 7 6 3 2 1 1 5 10 13 14 14 10 8 7 7 8 9 9 10 11 13 13 12 11 12 15
3 1 2 1 2 4 2 2 4 6 5 6 6 5 3 2 2 2 6 7 6 8 9 5 3 5 6 7 9 8 5 6 7 9 10 9 9 11 11 8 7 7 7 7 9 10 8 5 7 9 9 11 12 12 14 17 18 12 7 6 6 7 6 5 4 3 3 2 7 10 11 13 13 10 9 9 8 9 11 11 11 11 13 15 16 16 16 17
5 6 6 4 3 4 1 4 5 6 7 8 8 7 7 7 4 1 4 6 5 4 6 5 3 4 4 4 8 10 8 7 9 10 12 12 10 9 9 8 6 7 7 7 7 7 7 7 7 8 8 8 9 10 11 14 15 10 7 6 6 6 6 5 3 2 3 3 9 11 10 11 11 8 8 9 9 11 12 12 12 13 14 16 17 19 20 19
8 12 11 7 6 6 4 5 5 6 8 10 11 7 6 11 10 4 2 1 2 2 3 6 6 6 7 5 4 7 7 7 7 8 9 11 12 11 10 9 9 9 8 7 7 7 7 8 8 7 7 5 6 8 10 12 12 7 6 6 6 5 5 5 4 4 3 5 8 9 10 11 10 9 10 11 11 12 14 15 16 16 16 16 16 17 19 19
8 11 9 6 8 10 8 3 3 4 9 13 14 8 4 7 8 4 4 5 3 3 4 6 8 9 10 8 5 5 8 9 9 9 8 9 12 13 12 10 10 11 9 7 7 6 7 9 9 7 6 5 7 9 10 10 8 6 5 4 3 2 2 3 3 2 2 5 7 9 11 12 11 11 13 15 15 14 14 16 17 17 17 17 16 16 17 19
Wind_Direction
290 288 287 284 282 279 276 274 272 270 269 268 267 267 267 268 268 268 269 271 275 278 281 283 283 283 281 280 278 277 276 276 274 269 267 264 260 254 249 242 232 224 217 218 216 212 211 205 202 201 203 200 198 203 213 214 199 189 189 201 206 205 203 195 209 222 245 296 329 340 239 242 177 147 110 162 211 200 222 253 274 292 293 294 288 281 283 287
292 289 287 285 283 280 277 274 272 270 269 267 266 265 265 265 265 265 267 269 273 277 281 282 283 283 282 281 281 279 279 280 276 271 269 261 256 249 243 241 234 225 217 214 208 204 202 196 195 199 203 202 199 202 210 210 202 198 199 209 215 210 205 206 227 244 274 303 321 319 245 245 242 232 264 266 244 193 221 256 279 300 298 293 283 272 273 279
295 292 290 287 285 281 278 275 272 270 268 266 264 263 263 262 262 263 263 267 271 275 279 280 282 283 283 284 283 283 287 286 279 276 268 258 255 249 240 238 235 225 216 211 205 199 194 192 194 194 196 195 196 202 204 201 201 207 210 219 227 225 222 224 238 250 267 307 318 297 257 255 251 251 269 284 288 269 265 277 285 283 284 294 284 269 267 267
302 298 295 291 287 283 279 276 272 269 267 264 262 260 260 259 260 260 261 265 269 274 276 278 282 282 283 284 285 288 291 285 279 278 270 259 249 240 235 232 228 218 211 209 201 196 195 194 195 195 193 186 187 197 196 192 196 206 218 230 242 253 252 242 246 256 268 298 300 287 274 263 244 242 253 281 287 278 279 296 296 279 275 293 294 274 267 263
316 311 307 300 293 287 280 274 271 268 265 263 260 258 256 255 256 257 260 264 268 272 275 279 282 281 284 283 285 289 287 277 266 263 266 263 250 235 227 220 219 216 211 206 198 197 195 191 193 198 195 183 182 190 190 187 192 205 219 235 248 264 267 262 258 265 276 294 291 285 281 272 253 246 255 268 274 277 283 293 293 272 264 287 308 286 268 255
328 326 322 314 305 295 285 277 271 268 264 261 258 255 252 252 252 254 257 261 265 269 274 280 281 280 282 282 285 286 269 246 231 241 259 268 260 240 227 215 212 212 208 204 197 196 194 191 195 197 192 182 183 188 186 181 195 220 223 232 249 269 275 271 260 265 276 286 285 279 279 281 274 262 263 264 263 271 277 278 274 262 260 292 302 293 269 244
329 331 331 328 320 307 295 283 274 269 265 260 256 253 250 249 249 252 255 258 262 267 273 278 279 280 281 281 282 278 259 243 235 244 257 264 257 241 229 214 209 208 203 199 196 195 193 193 196 199 197 187 188 188 181 180 200 233 233 232 250 268 274 275 275 274 274 268 269 280 281 284 285 279 275 268 258 264 271 258 252 257 273 293 290 281 260 240
325 327 328 331 329 319 304 290 280 271 264 259 255 251 249 247 248 252 253 256 261 265 272 275 279 281 280 280 276 274 265 259 257 251 259 259 248 239 224 209 204 198 194 191 189 190 190 195 201 206 204 189 191 181 173 192 213 232 244 256 267 269 268 276 279 273 269 259 259 277 280 282 287 285 280 275 264 260 272 258 251 264 278 289 289 260 249 238
319 320 322 325 328 325 313 298 285 274 266 259 254 251 248 247 249 251 251 254 259 263 270 273 279 280 279 277 273 273 264 272 276 261 264 257 242 235 218 203 195 188 186 182 181 184 185 192 190 182 176 167 198 185 182 221 229 230 249 270 277 273 266 271 272 265 263 257 261 273 276 286 294 279 268 268 265 261 264 259 257 264 271 279 264 237 237 234
314 314 314 317 321 323 318 304 291 278 269 261 255 252 249 249 249 251 252 253 257 261 266 272 276 278 277 277 271 265 255 275 281 254 250 246 234 226 210 194 187 181 180 178 174 171 165 161 151 141 187 217 236 218 220 248 246 242 254 267 274 274 264 259 259 262 262 255 262 274 275 285 292 262 257 257 258 260 250 241 254 264 271 280 264 234 229 237
309 308 308 311 313 318 319 311 298 284 273 264 258 255 250 248 247 248 249 251 256 258 263 268 272 273 274 274 264 259 253 237 261 249 236 232 230 216 198 178 175 176 174 170 162 156 150 149 151 187 227 238 247 240 237 241 250 253 257 262 261 264 254 242 249 260 260 257 266 275 275 278 274 259 260 257 248 256 255 244 252 264 275 281 267 244 237 244
307 305 304 305 308 313 316 315 307 292 279 267 260 256 250 248 246 248 249 251 255 257 262 265 268 271 270 268 261 269 261 181 148 247 254 248 234 208 188 164 163 171 163 156 156 160 160 161 181 229 237 245 242 242 234 226 243 249 252 261 254 253 250 240 248 253 251 256 261 269 274 268 260 258 261 258 246 251 255 244 236 245 263 270 263 257 254 251
311 307 304 305 307 309 312 315 315 305 290 275 264 255 250 248 246 248 249 251 255 257 260 261 265 269 271 266 250 280 277 179 141 181 213 208 196 192 186 164 159 162 157 157 162 167 169 170 206 243 241 245 236 237 227 213 237 245 249 263 256 255 256 250 251 248 246 251 247 250 266 263 253 253 259 257 249 249 247 233 228 240 255 260 264 272 273 264
324 317 312 309 307 307 310 314 317 314 304 290 274 260 252 250 250 250 249 252 254 256 259 260 266 271 275 259 228 267 276 214 155 167 150 139 152 187 190 171 167 170 167 169 172 175 176 178 229 233 229 230 225 229 221 209 231 247 249 254 253 256 261 266 261 255 248 243 237 236 252 257 247 253 262 262 258 254 241 225 226 240 248 251 259 275 282 270
339 334 327 321 316 311 310 310 313 314 313 309 293 271 256 250 251 249 248 251 252 256 256 258 266 273 278 255 248 272 273 261 186 160 124 115 129 181 193 177 177 180 178 179 183 186 185 195 227 225 222 214 212 229 223 217 223 232 253 258 256 258 267 301 281 252 236 222 219 223 239 250 248 257 259 258 261 250 230 216 217 232 234 241 244 252 275 262
337 338 336 333 330 323 316 310 305 305 312 317 307 285 258 251 250 247 245 245 250 254 253 256 262 265 273 238 244 306 299 290 236 152 110 127 137 148 163 172 188 192 189 188 187 189 195 214 228 227 219 206 208 223 219 228 227 215 256 274 273 273 278 291 292 251 234 224 218 219 231 243 261 265 254 248 243 224 212 203 203 224 225 236 237 228 265 262
323 325 327 331 333 334 333 321 302 293 302 311 302 230 166 222 241 245 244 241 245 249 246 247 242 221 164 117 117 295 284 268 239 134 130 152 158 158 140 135 181 194 193 196 192 194 203 215 232 230 208 198 206 217 221 234 228 216 267 289 295 293 285 287 292 280 254 241 235 225 227 238 256 260 241 226 211 201 201 202 213 222 217 222 225 221 266 261
314 314 315 320 326 333 339 336 319 290 274 262 171 139 139 159 202 221 232 235 235 239 241 234 218 195 147 111 99 76 261 212 186 169 177 173 177 169 134 114 131 160 169 185 190 190 185 191 228 214 187 190 200 210 225 234 244 269 289 302 318 311 291 294 297 285 245 226 229 229 228 232 235 223 212 201 191 194 206 224 228 217 211 211 212 212 147 141
314 312 309 311 315 324 334 342 340 307 233 182 169 161 163 177 208 219 228 231 225 227 231 220 201 184 154 117 107 97 43 75 130 172 190 187 196 176 141 130 135 139 147 157 159 151 151 170 206 190 182 192 196 202 227 250 286 294 291 294 305 301 302 312 300 257 206 203 216 221 215 200 178 175 189 196 198 203 214 225 218 203 201 198 193 181 117 115
315 313 309 306 307 314 322 336 347 342 186 184 181 172 173 206 274 269 264 246 229 223 220 214 192 170 154 135 133 135 73 324 42 123 196 186 188 172 148 143 149 164 158 146 144 145 207 241 213 192 184 184 180 196 232 261 279 282 280 284 289 288 305 332 304 206 185 193 206 206 197 186 181 183 188 200 206 210 218 218 201 192 189 182 179 164 130 129
315 316 310 304 301 306 312 326 346 11 168 191 194 188 210 272 289 288 287 266 237 229 222 216 198 176 167 161 161 154 149 274 319 342 200 188 180 176 165 161 175 180 154 143 181 262 264 259 213 186 174 172 178 205 230 247 263 274 282 286 288 289 310 3 70 187 185 189 193 192 194 190 182 186 195 209 209 211 225 218 194 182 177 173 169 154 143 147
313 314 310 305 299 298 306 323 338 2 156 188 208 220 267 292 291 296 301 281 237 230 227 218 207 191 181 177 176 169 164 202 265 282 214 198 190 185 182 186 190 175 158 177 216 239 251 243 181 171 177 203 216 213 228 253 268 278 291 292 291 296 310 24 80 152 182 185 183 188 192 175 156 177 201 223 217 218 232 224 204 188 176 172 168 161 162 176
308 309 307 303 296 294 299 321 349 20 136 159 196 234 271 282 283 296 306 295 251 229 235 225 214 200 185 179 179 182 181 189 225 250 224 207 193 188 190 187 183 173 177 196 203 220 230 177 128 163 216 231 234 242 243 250 265 281 295 292 288 300 308 340 36 84 176 179 151 199 205 201 184 165 182 211 218 222 224 213 210 208 198 180 169 172 178 190
301 303 301 297 294 291 282 283 97 111 123 130 170 224 240 261 286 302 301 297 278 230 246 238 220 208 188 175 174 189 205 204 211 223 223 215 188 187 193 182 183 194 192 195 205 222 227 213 65 259 277 252 248 251 244 244 260 281 293 292 284 290 296 281 334 5 181 236 335 251 227 227 225 165 153 178 204 213 214 216 216 209 207 194 171 170 169 177
294 295 294 291 289 282 273 244 162 155 152 167 211 242 251 261 296 324 320 311 309 243 253 244 224 213 185 178 182 187 214 228 216 217 231 218 182 183 195 190 201 201 193 200 224 243 254 273 276 267 266 248 234 230 235 246 262 279 284 280 273 274 288 258 258 290 296 306 324 300 264 240 239 239 199 208 218 210 214 223 225 217 206 197 178 169 167 176
287 287 288 284 281 274 265 238 194 189 179 193 232 261 280 280 304 349 334 317 321 280 249 234 218 209 188 193 195 178 212 239 231 235 245 230 215 228 219 210 222 215 206 227 247 259 273 286 274 259 248 220 210 214 225 243 259 282 281 256 244 281 290 284 238 261 286 310 342 287 252 253 254 258 259 262 236 217 216 219 223 223 213 197 180 174 202 218
278 280 282 278 276 268 255 240 212 205 199 213 242 262 293 317 357 6 333 308 321 355 256 215 197 198 198 204 201 183 203 235 224 226 235 228 225 235 234 227 240 240 227 244 260 257 273 291 268 233 211 194 197 207 222 239 258 279 278 249 251 278 281 285 300 164 292 290 280 235 227 260 270 270 280 286 219 209 213 218 220 220 213 197 182 186 238 231
270 271 274 273 273 265 250 240 221 218 220 228 245 257 284 320 338 342 333 316 346 2 312 202 190 195 201 202 200 193 188 189 197 211 220 219 219 228 233 233 241 244 234 243 262 259 271 293 256 208 205 206 213 223 236 244 255 265 271 265 262 275 288 284 266 259 343 329 269 214 205 240 267 273 292 285 259 243 224 218 215 209 201 194 190 207 220 197
267 264 265 265 266 264 252 242 232 232 238 238 247 255 266 294 296 272 338 24 239 284 286 225 211 206 200 196 200 206 209 211 226 237 215 218 221 225 232 239 244 244 239 247 263 268 278 293 243 213 217 224 238 265 268 249 250 253 260 272 266 267 284 281 268 268 328 355 256 211 204 237 267 269 285 287 293 299 218 198 196 191 189 195 206 215 200 176
265 261 258 258 258 257 254 249 242 241 249 253 260 261 259 270 257 189 190 252 257 291 263 251 235 211 203 204 202 212 225 227 238 259 227 219 223 221 228 241 246 245 244 249 257 262 276 286 230 216 219 229 254 286 292 264 255 258 260 264 261 262 272 270 275 280 312 261 225 191 206 284 296 276 279 279 294 288 203 187 190 198 202 210 209 198 179 170
266 261 255 253 251 249 250 252 248 242 246 255 261 262 256 246 214 180 170 252 258 282 266 265 245 210 217 230 214 212 225 231 236 245 228 210 213 213 220 233 235 243 253 253 255 258 270 274 230 227 241 256 262 274 283 265 252 268 259 240 233 249 282 295 300 289 187 232 200 177 280 266 205 260 265 270 284 257 214 202 206 213 211 208 192 171 163 165
267 261 255 250 247 245 241 244 248 243 240 243 241 247 241 220 206 209 211 242 255 259 239 288 299 228 232 241 227 216 226 232 230 237 229 210 205 209 216 229 233 241 253 254 259 261 259 258 246 243 249 256 258 262 268 246 239 256 229 194 177 72 33 346 314 292 203 211 164 17 328 272 227 271 263 263 249 202 209 217 222 223 215 201 181 166 167 172
267 262 256 250 246 242 234 237 246 242 235 232 228 230 221 197 219 228 226 227 212 165 202 260 308 268 242 245 239 227 231 236 228 231 231 214 210 214 220 233 241 240 241 243 251 257 256 259 260 247 241 247 252 251 257 235 226 238 222 194 175 111 79 307 268 312 290 224 87 15 343 272 238 293 254 250 213 181 196 206 208 211 204 189 178 172 177 178
266 262 257 252 248 242 230 231 239 237 230 226 223 220 209 201 227 234 231 231 228 236 292 307 300 264 231 250 267 241 229 234 230 226 224 213 215 220 222 231 241 234 232 233 239 247 259 263 258 245 241 245 238 238 258 227 205 220 232 224 222 184 159 206 211 194 198 199 187 356 342 216 170 90 157 211 169 167 178 180 178 182 182 181 182 177 176 176
264 260 257 253 247 239 227 225 231 233 229 225 221 216 212 218 232 241 247 245 246 274 308 319 305 268 240 245 271 261 229 230 231 227 226 217 218 226 231 238 243 231 225 229 239 247 254 255 247 242 244 226 214 220 234 205 189 209 225 231 242 222 205 203 188 183 177 157 235 218 181 183 158 116 114 126 136 147 155 163 170 173 174 180 182 173 171 175
266 259 255 251 243 235 226 222 225 228 227 223 222 222 223 230 239 247 254 243 246 301 310 321 308 262 249 247 264 290 234 228 233 231 230 225 226 237 243 243 243 232 222 225 230 225 231 237 234 246 240 184 187 204 196 191 185 192 194 198 233 215 211 203 176 170 149 104 239 210 173 175 164 152 164 173 173 171 170 182 194 199 200 198 188 181 187 196
271 260 253 249 240 231 227 224 223 223 224 222 223 229 234 239 243 248 255 247 251 297 304 316 316 252 237 244 257 283 281 248 239 228 228 231 234 238 238 239 243 237 227 226 223 198 204 231 241 256 228 188 194 205 192 198 232 213 194 168 146 190 207 194 160 103 96 103 236 211 173 175 171 176 196 204 204 205 214 220 218 219 224 225 221 222 232 235
277 265 256 245 229 226 225 222 221 220 220 222 227 233 238 241 242 248 257 261 271 293 292 298 308 265 233 239 256 266 284 292 238 223 228 235 235 230 231 239 240 234 230 227 223 206 203 233 250 226 214 207 210 208 198 204 234 234 224 189 183 191 187 177 165 116 125 164 252 181 127 153 181 206 203 198 193 197 214 227 230 230 231 236 244 251 256 254
285 278 257 227 219 226 225 219 218 218 217 222 229 233 238 241 242 246 253 263 273 288 299 299 298 273 235 229 262 265 259 261 230 221 224 225 225 224 231 252 221 216 222 223 218 203 195 220 233 200 212 216 166 177 126 26 348 246 238 213 204 204 173 160 153 145 149 173 228 112 86 123 155 224 210 206 208 215 224 228 230 231 231 240 253 262 265 263
293 272 189 196 206 214 220 215 210 212 217 224 231 235 241 246 246 244 247 256 263 274 302 302 283 278 255 226 257 282 234 239 247 242 232 176 205 213 215 217 184 184 204 214 210 193 187 209 226 226 220 209 122 82 33 13 0 339 289 237 209 185 158 149 141 132 127 141 163 135 44 139 130 97 131 180 196 211 222 223 220 223 232 240 248 253 256 263
287 184 169 187 199 197 206 211 207 212 220 227 235 240 244 250 252 246 238 243 259 270 283 288 280 286 293 247 238 248 229 243 251 243 240 230 192 174 183 201 199 201 216 220 209 195 188 199 219 237 239 227 222 7 355 323 330 343 342 234 194 186 166 151 145 143 136 137 167 148 174 169 140 116 120 148 164 179 200 218 224 229 232 231 235 241 247 262
244 171 167 181 196 195 202 210 208 210 218 228 241 249 252 255 254 245 225 223 265 288 274 273 285 293 295 265 239 240 257 258 247 232 237 243 220 206 235 200 198 217 235 236 217 201 201 197 208 231 247 244 248 302 315 304 305 332 64 82 166 217 190 169 166 166 149 138 161 148 139 165 148 127 140 166 180 188 195 210 227 237 233 230 237 241 242 253
186 162 166 179 188 193 206 214 210 208 222 248 257 257 257 259 251 243 248 271 300 302 273 257 272 278 297 283 241 232 244 245 238 227 233 244 228 223 232 212 180 211 234 233 229 211 205 195 198 226 249 252 252 274 293 286 278 106 87 72 64 74 162 173 169 164 148 145 167 153 103 158 157 163 209 208 210 212 214 219 228 246 251 245 241 239 240 244
182 164 169 179 177 184 200 210 217 229 256 274 265 258 264 271 263 258 284 300 300 293 264 248 259 251 270 285 228 215 229 215 213 222 227 243 244 231 224 213 221 264 253 227 217 206 201 195 193 214 271 273 272 282 289 269 241 99 84 59 49 55 75 149 157 150 138 158 184 174 151 150 142 159 209 215 222 221 224 227 230 245 254 244 235 236 241 240
196 176 180 186 182 189 200 202 215 240 261 273 262 260 273 283 275 263 279 290 288 290 260 236 233 218 220 267 206 189 194 180 145 141 216 231 234 224 218 215 231 254 266 245 217 211 211 204 199 191 146 195 264 283 334 309 328 59 82 13 14 12 20 80 129 130 133 154 163 144 148 145 135 164 201 208 219 215 212 214 215 225 235 232 231 238 246 250
226 190 193 197 196 203 205 200 210 225 248 274 264 260 270 283 274 254 256 262 253 271 277 235 226 227 234 243 208 184 162 160 138 76 117 178 188 193 217 219 219 232 244 247 243 238 228 211 212 224 211 191 191 200 273 297 305 307 297 321 344 343 343 5 61 93 121 150 151 148 158 153 143 165 210 211 214 213 208 206 208 217 227 231 237 244 250 256
292 201 194 196 201 207 200 192 196 199 207 305 285 263 260 266 268 248 239 247 241 246 285 261 235 234 233 226 216 203 155 152 140 95 109 141 169 176 192 201 199 203 213 224 233 237 236 229 231 238 231 216 213 223 246 267 292 307 303 311 327 326 315 309 350 78 109 161 148 154 161 158 152 160 194 212 225 241 248 236 228 235 243 244 250 262 270 273
319 273 206 202 224 245 206 174 176 182 162 87 100 140 205 226 251 231 206 217 230 228 241 275 244 229 222 217 215 207 186 190 164 115 116 124 142 154 159 173 185 190 205 220 225 229 237 237 232 233 226 224 229 233 240 252 268 283 290 301 310 308 296 300 340 12 266 216 143 154 161 158 160 172 180 176 199 230 241 244 243 252 260 258 257 265 272 277
359 307 307 319 1 2 11 105 141 169 148 103 116 116 102 167 209 210 206 221 230 224 232 253 268 239 225 214 218 222 208 178 148 135 145 143 140 150 147 148 172 183 199 220 223 226 227 206 212 225 220 222 232 236 239 245 252 264 294 316 310 305 296 304 344 338 277 205 162 173 175 159 154 168 176 167 173 198 213 228 237 244 252 253 255 257 259 265
59 89 77 73 61 25 38 138 138 160 153 117 99 85 75 86 101 203 232 240 248 240 235 235 255 278 271 231 222 228 221 181 145 140 158 162 157 160 151 141 156 170 180 194 198 207 204 176 185 214 215 216 225 229 235 240 246 269 311 306 289 292 286 283 293 283 267 178 165 180 186 165 155 165 176 178 192 201 207 219 225 224 227 236 247 256 260 260
72 90 83 97 105 66 67 135 159 167 145 102 72 69 83 77 73 80 128 146 213 208 212 223 235 261 275 277 242 222 217 205 176 160 174 177 168 172 178 171 170 173 178 189 189 192 202 193 188 201 210 216 231 239 242 241 246 274 302 291 295 304 289 280 276 268 239 169 168 185 189 174 166 175 183 186 192 198 202 207 211 213 217 224 234 242 249 249
71 82 72 85 103 85 72 93 178 141 103 79 66 66 81 79 81 104 108 92 117 165 186 218 231 240 248 257 254 210 200 211 210 201 206 201 182 180 189 189 184 184 187 191 182 177 198 204 202 215 227 230 244 252 253 250 255 274 283 297 341 354 288 275 252 243 200 178 194 205 194 180 178 190 201 203 200 199 199 198 201 206 211 218 223 227 234 235